Orbital Elements at Epoch 2459200.5 (2020-Dec-17.0) TDB
Reference: JPL 31 (heliocentric ecliptic J2000)
Element | Value | Uncertainty (1-sigma) | Units |
e | .2088377807031507 | 4.3117e-08 | |
a | 2.373831874927346 | 6.7157e-09 | au |
q | 1.878086094405119 | 1.0074e-07 | au |
i | 4.758624619766743 | 4.17e-06 | deg |
node | 347.062121745496 | 4.3623e-05 | deg |
peri | 25.54685746116683 | 4.4442e-05 | deg |
M | 158.7750530980351 | 9.3024e-06 | deg |
tp | 2458611.313037290837 (2019-May-07.81303729) | 3.3488e-05 | TDB |
period | 1335.898193303288 3.66 | 5.669e-06 1.552e-08 | d yr |
n | .2694816130485397 | 1.1436e-09 | deg/d |
Q | 2.869577655449572 | 8.1182e-09 | au |
|
| | Orbit Determination Parameters
Additional Information
|